Location: Bidart
(43.4376°N, 1.5913°W)
Time: 19:40:56
(UTC+00:00)

Meteor 2-2 Rocket - Pass Details

Date: 19 May 2025
Orbit: 851 x 927 km, 81.3° (Epoch: 23 June)

Event Time Altitude Azimuth Distance (km) Brightness Sun altitude
Exits shadow 20:57:31 10° 175° (S) 2,542 6.2 -13.7°
Maximum altitude 21:03:14 63° 95° (E) 1,012 4.4 -14.4°
Drops below altitude 10° 21:09:09 10° 16° (NNE) 2,628 7.2 -15.1°
Sets 21:11:40 0° 14° (NNE) 3,580 8.0 -15.4°
